Hourly Data Report for June 16, 2018

OTTAWA INTL A
ONTARIO
Current Station Operator: NAVCAN

45°19'00.000" N
75°40'00.000" W
114.90 m
6106001
71628
YOW

Download Data

Hourly Data (June 2018)
Hourly Data Report for June 16, 2018
TIME
LST
Temp Definition
°C
Dew Point Definition
°C
Rel Hum Definition
%
Precip. Amount Definition
mm

Wind Dir Definition
10's deg

Wind Spd Definition
km/h
Visibility Definition
km
Stn Press Definition
kPa
Hmdx Definition


Wind Chill Definition


Weather Definition


00:00 12.8 9.4 80   22 7 24.1 100.11     LegendNANA
01:00 12.7 10.1 84   20 9 24.1 100.14     Clear
02:00 13.4 9.1 75   26 7 24.1 100.18     LegendNANA
03:00 11.3 8.7 84   27 7 24.1 100.19     LegendNANA
04:00 11.4 9.4 88   22 6 24.1 100.18     Mainly Clear
05:00 10.5 9.2 92   21 4 24.1 100.23     LegendNANA
06:00 12.6 10.8 89   25 4 24.1 100.26     LegendNANA
07:00 17.6 12.1 70   26 9 24.1 100.30     Mostly Cloudy
08:00 19.7 10.8 56   30 12 24.1 100.32     LegendNANA
09:00 21.5 10.7 50   29 7 24.1 100.28     LegendNANA
10:00 23.3 9.3 40   30 4 24.1 100.25     Mostly Cloudy
11:00 25.6 9.7 36   32 10 24.1 100.23 27   LegendNANA
12:00 26.4 9.3 33   29 16 24.1 100.19 27   LegendNANA
13:00 26.7 8.3 31   30 17 24.1 100.12 27   Mainly Clear
14:00 27.5 10.5 34   27 7 24.1 100.08 29   LegendNANA
15:00 27.9 8.2 29   28 8 24.1 100.04 28   LegendNANA
16:00 27.6 8.5 30   23 10 24.1 100.03 28   Clear
17:00 27.7 8.4 29   30 9 24.1 100.02 28   LegendNANA
18:00 26.6 12.2 40   22 13 24.1 100.07 29   LegendNANA
19:00 25.0 12.0 44   21 10 24.1 100.09 27   Clear
20:00 22.8 12.0 50   20 10 24.1 100.15 25   LegendNANA
21:00 21.6 11.8 53   17 10 24.1 100.19     LegendNANA
22:00 19.1 12.7 66   17 10 24.1 100.20     Mainly Clear
23:00 18.1 12.8 71   18 10 24.1 100.18     LegendNANA

Notes on Data Quality.

Legend

  • E = Estimated
  • M = Missing
  • NA = Not Available*
  • [empty] = Indicates an unobserved value
Date modified: